When you browse on this site, cookies collect data to enhance your experience and personalize the content and advertising you see.
Visit our Privacy Policy to learn more. By continuing to use the site, you agree to this use of cookies and data.

Hourly Weather Saint-Egreve

Today, 12 July, Sunday

Time Temperature Precipitation Wind Pressure Humidity
00:00 +15°C° 0 mm 1 mps 745 mmHg 92%
01:00 +15°C° 0 mm 1 mps 745 mmHg 93%
02:00 +15°C° 0 mm 1 mps 745 mmHg 93%
03:00 +14°C° 0 mm 1 mps 745 mmHg 93%
04:00 +15°C° 0 mm 1 mps 745 mmHg 91%
05:00 +16°C° 0 mm 1 mps 745 mmHg 88%
06:00 +18°C° 0 mm 1 mps 745 mmHg 86%
07:00 +20°C° 0 mm 1 mps 745 mmHg 78%
08:00 +22°C° 0 mm 1 mps 745 mmHg 71%
09:00 +24°C° 0 mm 2 mps 745 mmHg 63%
10:00 +26°C° 0 mm 2 mps 745 mmHg 60%
11:00 +27°C° 0 mm 2 mps 746 mmHg 56%
12:00 +28°C° 0 mm 2 mps 746 mmHg 53%
13:00 +29°C° 0 mm 2 mps 745 mmHg 54%
14:00 +29°C° 0 mm 2 mps 745 mmHg 54%
15:00 +29°C° 0 mm 2 mps 745 mmHg 55%
16:00 +28°C° 0 mm 2 mps 745 mmHg 61%
17:00 +27°C° 0 mm 1 mps 745 mmHg 66%
18:00 +26°C° 0 mm 1 mps 745 mmHg 72%
19:00 +24°C° 0 mm 1 mps 745 mmHg 78%
20:00 +22°C° 0 mm 1 mps 745 mmHg 83%
21:00 +18°C° 0 mm 0 mps 746 mmHg 89%
22:00 +17°C° 0 mm 0 mps 746 mmHg 89%
23:00 +17°C° 0 mm 0 mps 746 mmHg 90%

Tomorrow, 13 July, Monday

Time Temperature Precipitation Wind Pressure Humidity
00:00 +17°C° 0 mm 0 mps 746 mmHg 90%
01:00 +16°C° 0 mm 0 mps 745 mmHg 91%
02:00 +16°C° 0 mm 0 mps 745 mmHg 92%
03:00 +18°C° 0 mm 1 mps 745 mmHg 93%
04:00 +17°C° 0 mm 0 mps 745 mmHg 90%
05:00 +18°C° 0 mm 0 mps 745 mmHg 87%
06:00 +19°C° 0 mm 0 mps 745 mmHg 84%
07:00 +23°C° 0 mm 1 mps 745 mmHg 74%
08:00 +25°C° 0 mm 1 mps 745 mmHg 64%
09:00 +27°C° 0 mm 1 mps 745 mmHg 55%
10:00 +28°C° 0 mm 2 mps 744 mmHg 51%
11:00 +29°C° 0 mm 2 mps 744 mmHg 48%
12:00 +30°C° 0 mm 2 mps 744 mmHg 45%
13:00 +29°C° 0 mm 2 mps 743 mmHg 45%
14:00 +29°C° 0 mm 2 mps 743 mmHg 46%
15:00 +29°C° 0 mm 2 mps 743 mmHg 46%
16:00 +28°C° 0 mm 2 mps 743 mmHg 53%
17:00 +27°C° 0 mm 2 mps 743 mmHg 59%
18:00 +25°C° 0 mm 1 mps 742 mmHg 66%
19:00 +23°C° 0 mm 1 mps 743 mmHg 72%
20:00 +21°C° 0 mm 1 mps 743 mmHg 78%
21:00 +17°C° 0 mm 0 mps 743 mmHg 84%
22:00 +17°C° 0 mm 0 mps 743 mmHg 86%
23:00 +16°C° 0 mm 0 mps 743 mmHg 87%

Day after tomorrow, 14 July, Tuesday

Time Temperature Precipitation Wind Pressure Humidity
00:00 +16°C° 0 mm 0 mps 743 mmHg 88%
01:00 +15°C° 0 mm 0 mps 742 mmHg 89%
02:00 +15°C° 0 mm 0 mps 742 mmHg 90%
03:00 +14°C° 0 mm 0 mps 742 mmHg 91%
04:00 +16°C° 0 mm 0 mps 742 mmHg 88%
05:00 +17°C° 0 mm 0 mps 742 mmHg 84%
06:00 +18°C° 0 mm 0 mps 742 mmHg 81%
07:00 +21°C° 0 mm 1 mps 742 mmHg 75%
08:00 +23°C° 0 mm 1 mps 742 mmHg 69%
09:00 +24°C° 0 mm 2 mps 742 mmHg 63%
10:00 +25°C° 0 mm 2 mps 742 mmHg 60%
11:00 +26°C° 0 mm 2 mps 741 mmHg 56%
12:00 +27°C° 0 mm 2 mps 741 mmHg 53%
13:00 +27°C° 0.1 mm 2 mps 741 mmHg 53%
14:00 +27°C° 0.1 mm 2 mps 740 mmHg 53%
15:00 +27°C° 0.1 mm 2 mps 740 mmHg 53%
16:00 +26°C° 0.1 mm 2 mps 740 mmHg 58%
17:00 +25°C° 0.1 mm 2 mps 740 mmHg 63%
18:00 +24°C° 0.1 mm 1 mps 740 mmHg 68%
19:00 +22°C° 0 mm 1 mps 741 mmHg 73%
20:00 +20°C° 0 mm 1 mps 741 mmHg 78%
21:00 +16°C° 0 mm 0 mps 741 mmHg 82%
22:00 +16°C° 0 mm 0 mps 741 mmHg 83%
23:00 +16°C° 0 mm 0 mps 741 mmHg 84%

15 July, Wednesday

Time Temperature Precipitation Wind Pressure Humidity
00:00 +15°C° 0 mm 0 mps 741 mmHg 85%
01:00 +15°C° 0 mm 0 mps 741 mmHg 86%
02:00 +15°C° 0 mm 0 mps 741 mmHg 86%
03:00 +14°C° 0 mm 0 mps 741 mmHg 87%
04:00 +16°C° 0 mm 0 mps 741 mmHg 84%
05:00 +17°C° 0 mm 0 mps 741 mmHg 80%
06:00 +18°C° 0 mm 0 mps 741 mmHg 77%
07:00 +21°C° 0 mm 1 mps 741 mmHg 71%
08:00 +23°C° 0 mm 1 mps 741 mmHg 64%
09:00 +25°C° 0 mm 2 mps 741 mmHg 58%
10:00 +25°C° 0.2 mm 2 mps 741 mmHg 61%
11:00 +24°C° 0.2 mm 3 mps 741 mmHg 65%
12:00 +24°C° 0.2 mm 3 mps 741 mmHg 68%
13:00 +24°C° 0.3 mm 3 mps 741 mmHg 72%
14:00 +22°C° 0.3 mm 3 mps 741 mmHg 76%
15:00 +23°C° 0.3 mm 2 mps 741 mmHg 80%
16:00 +21°C° 0.1 mm 2 mps 741 mmHg 80%
17:00 +21°C° 0.1 mm 2 mps 741 mmHg 80%
18:00 +20°C° 0.1 mm 2 mps 741 mmHg 80%
19:00 +19°C° 0 mm 2 mps 742 mmHg 84%
20:00 +19°C° 0 mm 1 mps 742 mmHg 88%
21:00 +16°C° 0 mm 1 mps 743 mmHg 92%
22:00 +16°C° 0 mm 1 mps 743 mmHg 93%
23:00 +15°C° 0 mm 1 mps 743 mmHg 93%

16 July, Thursday

Time Temperature Precipitation Wind Pressure Humidity
00:00 +15°C° 0 mm 1 mps 743 mmHg 94%
01:00 +15°C° 0 mm 1 mps 743 mmHg 95%
02:00 +14°C° 0 mm 1 mps 743 mmHg 96%
03:00 +14°C° 0 mm 1 mps 742 mmHg 97%
04:00 +15°C° 0 mm 1 mps 743 mmHg 95%
05:00 +16°C° 0 mm 1 mps 743 mmHg 94%
06:00 +16°C° 0 mm 2 mps 743 mmHg 93%
07:00 +18°C° 0 mm 2 mps 743 mmHg 85%
08:00 +20°C° 0 mm 2 mps 743 mmHg 76%
09:00 +21°C° 0 mm 3 mps 743 mmHg 68%
10:00 +22°C° 0 mm 3 mps 743 mmHg 66%
11:00 +24°C° 0 mm 3 mps 743 mmHg 63%
12:00 +25°C° 0 mm 4 mps 743 mmHg 60%
13:00 +25°C° 0.1 mm 4 mps 742 mmHg 61%
14:00 +25°C° 0.1 mm 4 mps 742 mmHg 63%
15:00 +25°C° 0.1 mm 4 mps 742 mmHg 64%
16:00 +24°C° 0.1 mm 3 mps 742 mmHg 69%
17:00 +22°C° 0.1 mm 3 mps 742 mmHg 74%
18:00 +21°C° 0.1 mm 3 mps 742 mmHg 79%
19:00 +20°C° 0 mm 2 mps 742 mmHg 84%
20:00 +18°C° 0 mm 2 mps 742 mmHg 90%
21:00 +16°C° 0 mm 2 mps 743 mmHg 95%
22:00 +16°C° 0 mm 2 mps 743 mmHg 96%
23:00 +16°C° 0 mm 1 mps 742 mmHg 97%

17 July, Friday

Time Temperature Precipitation Wind Pressure Humidity
00:00 +16°C° 0 mm 1 mps 742 mmHg 98%
01:00 +16°C° 0 mm 2 mps 742 mmHg 97%
02:00 +16°C° 0 mm 2 mps 742 mmHg 97%
03:00 +16°C° 0 mm 2 mps 742 mmHg 97%
04:00 +16°C° 0 mm 2 mps 742 mmHg 96%
05:00 +16°C° 0 mm 2 mps 742 mmHg 95%
06:00 +16°C° 0 mm 2 mps 743 mmHg 94%
07:00 +17°C° 0 mm 2 mps 743 mmHg 89%
08:00 +18°C° 0 mm 3 mps 743 mmHg 84%
09:00 +19°C° 0 mm 3 mps 743 mmHg 79%
10:00 +21°C° 0 mm 3 mps 743 mmHg 73%
11:00 +22°C° 0 mm 3 mps 742 mmHg 67%
12:00 +23°C° 0 mm 4 mps 742 mmHg 61%
13:00 +25°C° 0 mm 4 mps 742 mmHg 58%
14:00 +26°C° 0 mm 4 mps 742 mmHg 55%
15:00 +26°C° 0 mm 5 mps 742 mmHg 51%
16:00 +25°C° 0 mm 4 mps 742 mmHg 56%
17:00 +25°C° 0 mm 4 mps 742 mmHg 60%
18:00 +24°C° 0 mm 3 mps 742 mmHg 65%
19:00 +21°C° 0 mm 3 mps 742 mmHg 72%
20:00 +19°C° 0 mm 2 mps 743 mmHg 79%
21:00 +17°C° 0 mm 2 mps 743 mmHg 86%
22:00 +16°C° 0 mm 1 mps 743 mmHg 88%
23:00 +16°C° 0 mm 1 mps 743 mmHg 89%
Show more